CAPE
0 0 0 38 30 23 24 22 25 21 20 12 13 14 0 0 1 12 15 1 0 87 254 202 158 121 183 245 271 482 343 386 646 740 784 798 803 849 883 948 1064 1136 1198 1174 1244 1418 1468 1433 1422 1404 1318 1393 1359 1314 1248 1214 1657 1864 1912 1860 1786 1697 1591 1524 1422 1455 1265 1205 1157 1085 1008 841 498 456 334 264 201 119 140 313 561 704 880 849 782 952 1206
0 0 0 0 3 22 16 16 28 31 31 23 20 28 21 12 4 21 36 15 1 0 201 20 68 57 101 82 227 303 319 471 618 782 692 645 655 735 860 936 1015 1081 1058 1111 1179 1292 1430 1543 1560 1521 1574 1590 1552 1362 1346 1330 1590 2051 2280 2183 2152 2032 2003 1978 1934 1922 1770 1492 1376 1296 1240 1195 1030 698 533 469 470 420 341 378 523 686 825 925 864 855 1089
0 0 0 0 0 0 0 0 10 9 22 36 31 25 26 26 19 33 56 39 16 0 0 94 52 10 0 0 41 177 172 214 352 560 627 572 559 609 718 877 995 988 1084 1181 1228 1333 1512 1609 1666 1696 1673 1552 1488 1572 1364 1285 1339 1778 2305 2469 2475 2561 2509 2499 2339 2306 2100 1982 1758 1641 1589 1530 1479 1221 769 640 637 663 637 590 669 781 880 966 991 914 962
0 0 0 0 0 0 0 0 0 0 5 14 27 47 30 31 31 25 43 55 44 23 120 21 0 0 0 0 1 87 113 138 105 214 344 432 496 549 691 814 943 1023 1037 1206 1384 1400 1503 1583 1620 1709 1707 1629 1496 1320 1328 1190 1186 1321 1679 2280 2495 2632 2664 2680 2605 2572 2314 2025 2195 2244 2070 2014 1903 1597 1206 828 716 745 808 808 824 911 970 990 1066 1045 994
0 0 0 0 0 0 0 0 0 0 0 0 0 7 23 26 37 36 40 69 48 96 12 3 3 0 0 0 0 0 70 200 244 284 234 267 392 521 575 437 324 874 1012 1080 1246 1426 1404 1468 1558 1511 1514 1518 1332 1385 1099 1148 1147 1058 1354 1668 2088 2468 2750 2739 2626 2519 2485 2423 2084 2243 2471 2519 2324 1986 1552 1184 857 774 840 931 948 1000 1063 1068 1099 1145 1120
0 0 0 0 0 0 0 0 0 0 0 0 0 0 0 12 36 41 36 52 57 21 1 2 8 0 0 0 0 0 0 15 97 274 269 290 232 277 340 209 0 0 130 692 1039 1154 1312 1384 1464 1445 1327 1276 1327 1290 1244 1134 1040 1360 1147 1497 1680 1948 2249 2413 2404 2175 2155 2199 2147 2212 2536 2665 2637 2406 2008 1488 1146 855 835 975 1065 1074 1108 1134 1138 1178 1214
0 0 0 0 0 0 0 0 0 0 0 0 0 3 68 3 1 23 37 40 48 25 8 2 0 0 0 0 0 0 0 0 18 29 13 90 185 213 263 268 268 38 19 362 439 488 641 1048 1283 1249 1244 1250 1388 1203 1149 1055 1184 1068 1352 1333 1395 1726 1816 2018 2086 2031 1937 1927 2064 2127 2326 2648 2774 2679 2472 1987 1428 1121 884 990 1134 1188 1176 1174 1180 1198 1254
0 0 0 0 0 0 0 0 0 7 0 0 0 0 0 0 0 1 24 34 32 24 5 4 33 0 0 0 0 0 0 0 0 3 2 1 128 178 78 37 0 12 240 212 283 0 0 370 985 1259 1314 1196 1194 1315 1234 1357 1046 1130 1324 1450 1792 1894 1856 1801 1716 1814 1800 1748 1809 2082 2355 2557 2772 2845 2765 2529 1916 1394 1065 1020 1180 1272 1290 1247 1227 1208 1243
0 0 0 0 0 0 0 0 0 0 0 0 0 0 0 2 0 0 0 0 21 22 7 0 0 0 0 1 0 0 0 0 0 0 0 127 78 162 86 0 0 0 0 0 0 0 0 212 271 1325 1415 1295 1311 1334 1369 1579 1671 1605 1284 1259 1564 1881 1864 1835 1742 1634 1642 1648 1750 2166 2439 2585 2687 2802 2902 2770 2526 1959 1370 1109 1228 1354 1407 1401 1350 1278 1260
0 0 0 0 0 0 0 5 6 0 0 0 0 0 0 10 7 0 0 0 0 14 6 0 0 0 9 36 19 0 0 0 0 0 0 0 0 2 0 0 0 0 0 0 0 0 0 0 157 32 566 1263 1559 1430 1515 1728 1961 2035 2065 1807 1511 1545 1502 1547 1524 1482 1507 1553 1892 2300 2464 2592 2713 2758 2842 2888 2720 2446 1824 1358 1185 1368 1472 1497 1485 1432 1371
0 0 0 0 0 0 34 0 0 34 46 0 5 0 0 34 7 0 0 0 0 0 1 0 0 11 31 17 28 0 0 0 0 0 0 0 0 0 0 0 0 0 0 0 0 0 0 0 0 0 0 398 1188 1483 1528 1652 1789 1970 2100 2161 2134 1946 1603 1600 1533 1446 1547 1777 2138 2441 2551 2612 2723 2830 2878 2928 2831 2639 2202 1608 1288 1390 1522 1557 1566 1546 1499
0 0 1 0 0 0 0 0 0 0 0 82 53 20 20 6 0 0 0 0 0 0 0 0 0 4 37 20 19 0 0 0 0 0 0 0 0 0 0 0 0 0 0 0 0 0 0 0 0 0 0 0 182 552 1348 1481 1673 1894 2047 2167 2200 2197 2168 1893 1505 1551 1554 2030 2358 2574 2657 2698 2781 2898 2968 2977 2934 2716 2366 1869 1429 1433 1523 1612 1615 1619 1595
0 3 1 2 0 45 0 0 0 0 19 24 10 0 8 0 0 0 0 0 0 0 0 0 0 0 0 0 0 0 0 0 0 0 0 0 0 0 0 0 0 0 0 0 0 0 0 0 0 0 0 0 0 2 557 1253 1544 1801 1880 1980 2243 2391 2316 2228 1942 1590 1632 2004 2466 2701 2724 2767 2836 2960 2982 3003 2975 2822 2453 2247 1719 1459 1472 1584 1659 1685 1668
0 0 2 0 0 11 0 0 0 9 12 0 0 0 0 0 0 0 0 0 0 0 0 0 0 0 0 0 0 0 0 0 0 0 0 0 0 0 0 0 0 0 0 0 0 0 0 0 0 0 0 0 0 0 381 589 1195 1535 1687 1846 2541 3114 3038 2640 2357 2142 1742 2011 2495 2750 2807 2828 2907 2969 2995 2979 2953 2899 2563 2359 2139 1662 1510 1527 1631 1701 1720
0 0 2 2 2 8 0 0 0 9 0 0 2 0 0 0 0 0 0 0 0 0 0 0 0 0 0 0 0 0 0 0 0 0 0 0 0 0 0 0 0 0 0 0 0 0 0 0 0 0 0 0 0 0 73 493 650 840 1384 1928 2631 3390 3816 3793 3204 2456 2294 2077 2437 2796 2866 2842 2859 2923 2960 2965 2926 2864 2695 2416 2268 2065 1729 1534 1586 1674 1728
0 0 0 0 0 0 0 0 0 0 0 0 0 0 0 0 0 0 0 0 0 0 0 0 0 0 0 0 0 0 0 0 0 0 0 0 0 0 0 0 0 0 0 0 0 0 0 0 0 0 0 0 0 0 0 0 473 929 1571 2036 2433 2998 3663 3918 3733 3379 2912 2419 2412 2739 2895 2888 2874 2899 2928 2931 2906 2830 2716 2491 2322 2214 2073 1695 1596 1618 1707
0 0 0 0 0 0 0 3 0 0 0 0 0 0 0 0 0 0 0 0 0 0 0 0 0 0 0 0 0 0 0 0 0 0 0 0 0 0 0 0 0 0 0 0 0 0 0 0 0 0 0 0 0 0 0 0 362 624 1352 1943 2270 2849 3554 3670 3650 3482 3174 2692 2515 2778 2872 2903 2880 2871 2873 2866 2858 2815 2705 2539 2396 2255 2235 2012 1694 1626 1643
0 0 0 0 0 0 0 0 0 0 0 0 0 0 0 0 0 0 0 0 0 0 0 0 0 0 0 0 0 0 0 0 0 0 0 0 0 0 0 0 0 0 0 0 0 0 0 0 0 0 0 0 0 0 0 0 486 964 1315 1743 2232 2703 3332 3503 3526 3487 3472 3194 2599 2887 2955 2922 2908 2876 2838 2848 2831 2777 2679 2577 2446 2317 2302 2186 1954 1663 1617
0 0 0 0 0 0 0 0 0 0 0 0 0 0 0 0 0 0 0 0 0 0 0 0 0 0 0 0 0 0 0 0 0 0 0 0 0 0 0 0 0 0 0 0 0 0 0 0 0 0 0 0 0 0 3 30 762 1408 1750 1922 2334 3043 3324 3325 3356 3389 3529 3574 2858 2912 3046 3034 3002 2954 2910 2858 2799 2722 2659 2617 2484 2382 2354 2307 2185 1925 1630
0 0 0 0 0 0 0 0 0 0 0 0 0 0 0 0 0 0 0 0 0 0 0 0 0 0 0 0 0 0 0 0 0 0 0 0 0 0 0 0 0 0 0 0 0 0 0 0 1 0 0 1 1 0 0 360 706 1113 1617 2099 2641 2850 2903 2973 3094 3261 3510 3806 3245 2963 3123 3124 3081 3031 2966 2898 2817 2758 2727 2654 2558 2476 2423 2385 2354 2172 1936
0 0 0 0 0 0 0 0 0 0 0 0 0 0 0 0 0 0 0 0 0 0 0 0 0 0 0 0 0 0 0 0 0 0 0 0 0 0 0 0 0 0 0 0 0 0 0 0 1 0 0 0 0 0 118 333 531 857 1169 1591 2344 2542 2640 2852 3135 3353 3635 3854 3392 2980 3212 3261 3216 3146 3079 3004 2943 2884 2819 2706 2628 2586 2554 2498 2447 2344 2129
0 0 0 0 0 0 0 0 0 0 0 0 0 0 0 0 0 0 0 0 0 0 0 0 0 0 0 0 0 0 0 0 0 0 0 0 0 0 0 0 0 0 0 0 0 0 0 0 0 0 0 0 0 0 177 304 404 607 925 1274 1659 1935 2228 2713 3111 3447 3740 3721 3435 3002 3293 3364 3428 3354 3288 3277 3207 3108 3024 2865 2821 2776 2711 2668 2575 2472 2382
0 0 0 0 0 0 0 0 0 0 0 0 0 0 0 0 0 0 0 0 0 0 0 2 3 2 0 0 1 0 0 0 0 0 0 0 0 0 0 0 0 0 0 0 0 0 0 0 0 0 0 0 112 181 198 284 414 556 734 1050 1311 1685 2000 2234 2673 3369 3848 3790 3479 2882 3275 3461 3522 3579 3603 3520 3416 3306 3377 3267 3016 2918 2850 2814 2740 2711 2647
0 0 0 0 0 0 0 0 0 0 0 0 0 0 0 0 0 0 0 0 0 0 0 1 9 10 6 1 1 0 0 0 0 0 0 0 0 0 0 0 0 0 0 0 0 0 0 0 0 0 0 0 0 216 279 280 368 532 730 988 1257 1442 1686 2008 2570 3133 3792 3804 3621 3171 3156 3456 3641 3804 3864 3815 3672 3538 3510 3499 3410 3255 3089 3013 2981 2971 2907
0 0 0 0 0 0 0 0 0 0 0 0 0 0 0 0 0 0 4 4 1 4 4 2 4 10 4 0 0 1 2 1 0 1 8 14 20 10 0 0 0 0 0 0 0 0 0 1 0 1 1 0 0 140 246 338 425 510 672 932 1164 1356 1563 1885 2371 2948 3718 3865 3663 3333 3112 3370 3672 3731 3766 3722 3692 3742 3730 3724 3740 3709 3656 3617 3528 3332 3271
0 0 0 0 0 0 0 0 0 0 0 0 0 1 0 11 6 6 9 9 4 0 0 2 7 6 4 6 18 26 15 5 6 12 11 3 0 5 0 0 0 0 0 0 0 0 2 4 3 3 2 0 138 166 261 356 448 525 725 950 1165 1339 1540 1807 2157 2744 3462 3779 3782 3578 3306 3294 3579 3795 3777 3656 3457 3549 3784 3891 3996 3984 3977 3916 3871 3832 3758
0 0 0 0 0 0 0 0 0 0 0 0 0 0 1 0 2 6 0 0 0 0 0 4 15 22 24 23 23 27 27 13 8 3 0 0 0 0 5 0 0 0 0 0 0 0 5 4 4 2 1 34 232 294 365 420 500 646 890 1043 1146 1301 1589 2358 2238 2464 3024 3593 3770 3466 3412 3499 3598 3571 3683 3669 3555 3462 3470 3520 3758 4117 4231 4177 4092 4017 3991
0 0 0 0 0 0 0 0 0 0 1 1 5 3 0 2 6 7 1 0 0 0 1 1 6 12 9 5 9 10 4 2 0 0 0 0 0 6 6 0 0 0 0 0 0 3 4 2 2 1 0 0 244 363 445 531 748 931 958 936 1004 1168 1374 1558 1745 2094 2483 3056 3605 3686 3376 3407 3507 3678 3908 3734 3475 3317 3452 3546 3563 3755 4050 4186 4174 4143 4189
0 0 0 0 0 0 0 1 0 1 4 13 31 23 31 16 0 1 0 2 2 4 6 9 11 16 5 0 0 0 0 0 0 0 1 5 8 6 3 0 0 0 0 0 2 2 3 2 2 1 18 67 248 404 522 627 779 950 976 985 1020 1053 1152 1370 1568 1699 1907 2422 2892 2964 3308 2910 3039 3592 3782 3312 2868 3191 3501 3476 3397 3570 3832 4136 4152 3934 3656
0 0 0 0 0 0 0 0 0 4 11 36 31 2 13 8 3 1 4 6 9 12 11 11 16 14 14 11 7 5 4 0 0 0 5 12 12 5 0 0 0 0 2 5 0 1 4 6 2 1 139 173 288 445 553 603 756 854 933 957 952 933 936 1167 1322 1424 1613 1893 2358 2535 2542 2766 2698 2596 2788 2802 2892 3005 3187 3330 3478 3326 3623 3914 3936 3440 2966
0 0 0 0 0 0 0 1 0 1 6 24 40 8 0 0 0 3 9 16 15 14 14 18 12 1 4 3 3 3 2 2 3 14 25 15 11 9 2 7 15 13 7 4 0 4 4 7 10 81 195 248 334 371 469 584 678 763 811 835 905 853 901 1045 1157 1238 1378 1630 1763 2038 2075 2057 2562 2550 2508 2374 2456 2631 3005 3320 3417 3248 2968 2976 2839 2601 2446
0 0 0 0 0 0 0 0 0 3 16 33 25 4 3 0 1 4 12 11 11 12 18 12 1 1 3 5 5 4 4 5 5 4 22 15 9 16 26 40 35 8 19 8 4 4 5 10 9 36 65 181 163 194 301 437 509 551 592 640 908 972 976 1019 1066 1126 1300 1514 1716 2000 2110 1970 2078 2390 2699 2616 2472 2632 2708 2880 3123 3122 2947 2792 2612 2341 2353
0 0 0 0 1 0 0 0 2 1 5 20 25 4 4 0 0 4 10 13 15 26 19 6 1 5 17 27 36 34 24 14 12 59 43 19 18 65 26 8 2 5 10 7 5 4 5 7 22 44 125 177 177 217 183 104 233 306 390 436 571 695 790 887 936 1001 1139 1321 1537 1864 2221 2341 2279 2208 2327 2533 2584 2540 2529 2653 2908 2950 2812 2748 2600 2328 2186
0 0 0 0 0 0 0 2 3 3 4 39 11 3 2 1 0 2 4 17 25 13 6 2 3 27 47 59 65 57 43 26 50 69 10 23 48 21 10 7 4 16 34 16 2 2 40 2 31 67 95 182 227 188 120 45 37 221 264 344 500 669 775 858 919 1002 998 1029 1266 1562 1867 2172 2388 2420 2408 2390 2382 2449 2499 2511 2480 2599 2735 2670 2615 2466 2254
0 0 0 0 0 2 2 1 2 9 31 28 4 2 1 0 0 2 8 21 10 3 3 4 4 8 46 63 60 52 44 25 82 75 135 28 34 33 8 3 10 18 38 51 40 23 46 45 17 59 31 83 159 168 4 2 5 45 226 339 458 607 775 906 1007 1015 1086 1093 1186 1400 1565 1822 2153 2436 2560 2516 2509 2466 2375 2470 2618 2696 2631 2540 2401 2220 2165
0 0 0 0 0 2 9 1 1 19 30 21 7 6 3 0 1 0 4 8 7 6 4 2 2 4 19 72 79 82 87 75 72 66 60 65 55 31 6 0 1 19 41 40 44 49 50 25 4 22 40 57 54 7 7 2 122 2 142 240 374 499 633 811 931 980 989 1053 1156 1346 1451 1590 1842 2096 2324 2554 2530 2551 2589 2585 2557 2610 2708 2576 2330 2119 2272
0 0 0 0 1 4 2 2 18 25 14 10 14 13 8 0 0 0 12 11 9 9 6 2 2 17 34 49 62 79 96 113 84 94 98 70 75 55 20 2 2 31 54 46 40 30 51 6 4 3 2 1 1 7 13 29 1 0 1 204 314 439 543 647 835 925 934 906 921 1060 1299 1474 1653 1832 2068 2275 2404 2462 2539 2632 2554 2514 2442 2467 2328 2129 2276
0 0 0 1 4 3 3 1 2 11 30 36 24 23 14 7 0 0 2 9 11 10 9 3 6 2 21 85 27 7 69 47 30 59 84 88 84 65 42 10 10 39 57 49 35 35 38 21 2 1 1 2 0 0 8 1 0 0 0 224 272 264 348 581 817 889 1007 987 994 1048 1158 1425 1591 1726 1796 1914 2164 2093 1900 2178 2231 2182 2106 2124 2066 1908 2144
0 0 0 2 1 2 1 4 3 4 39 24 8 3 12 22 30 1 0 7 10 21 9 3 3 7 14 23 67 25 2 0 25 74 104 101 58 16 44 8 24 31 34 29 22 17 16 11 5 1 9 2 3 0 2 4 1 2 0 0 7 3 240 396 641 728 900 978 996 1082 1160 1228 1294 1330 1358 1484 1688 1753 1617 1838 2016 2037 1880 1962 1935 2004 2237
0 0 0 2 1 9 8 4 4 5 8 14 11 3 5 23 1 0 1 7 14 25 14 6 10 19 16 48 35 42 20 2 41 54 31 13 10 9 56 8 22 34 39 20 3 6 11 5 3 11 10 8 4 4 2 3 0 0 6 0 38 36 3 199 310 636 695 773 858 937 993 1045 1061 1093 1223 1401 1470 1452 1504 1704 1912 1989 1921 1862 1784 1780 2034
0 0 0 0 2 3 2 1 4 7 10 34 41 12 4 2 3 0 1 11 16 20 18 20 26 21 18 19 24 28 28 18 17 27 12 9 10 9 27 34 33 46 47 20 8 7 8 7 12 21 4 6 6 6 0 0 0 0 1 22 4 1 2 76 179 206 240 146 578 725 876 895 784 674 1133 1259 1086 1200 1338 1562 1782 1985 2008 1678 1331 1032 1187
0 0 0 0 0 0 3 3 3 8 4 4 46 54 8 2 1 7 6 12 18 19 16 13 28 28 19 17 21 23 31 24 17 12 9 13 11 10 37 48 32 8 13 7 0 1 1 3 10 13 7 6 8 5 2 1 0 0 0 0 16 8 2 3 78 187 123 76 91 268 438 256 534 644 484 687 1092 1415 1579 1703 1759 1803 1704 1325 892 574 483
0 0 0 0 0 0 0 2 4 7 8 6 19 27 18 3 5 8 4 9 20 21 20 21 32 32 24 8 5 4 8 23 34 20 11 9 9 10 11 9 8 11 9 4 0 0 2 5 1 6 10 8 8 2 1 0 0 0 0 0 1 0 10 6 1 44 83 119 80 77 258 138 333 482 549 560 630 599 772 748 841 883 919 846 644 562 624
0 0 0 0 0 1 0 2 5 22 7 6 1 47 15 6 3 1 10 20 26 27 22 19 23 30 31 26 11 9 9 8 8 23 22 16 15 14 16 12 7 14 11 8 6 1 2 4 8 1 4 3 3 2 0 0 0 0 0 0 1 1 1 6 15 4 2 20 38 66 179 132 150 266 357 390 482 487 579 827 851 733 607 554 484 432 479
0 0 0 0 0 8 7 4 8 3 10 28 53 64 6 0 1 0 6 15 27 26 28 26 33 36 36 40 28 12 7 6 11 6 6 16 16 19 38 22 20 10 9 9 7 6 5 8 13 4 0 0 0 0 0 0 0 1 0 1 1 9 24 20 33 48 27 4 1 14 28 91 142 87 0 72 134 226 320 490 570 796 857 867 784 708 744
0 0 0 69 0 0 0 0 1 33 51 62 74 94 45 16 18 2 0 8 20 26 30 36 38 43 44 42 35 18 6 2 8 13 16 22 32 32 48 22 21 15 11 7 5 2 5 10 14 16 4 0 0 0 0 0 0 0 0 0 1 2 1 3 20 5 14 15 14 10 2 0 29 35 24 0 111 148 194 234 240 348 337 366 523 626 729
0 0 0 0 0 1 10 15 82 25 28 14 17 37 80 26 16 10 0 9 12 24 32 38 44 44 44 47 47 37 28 15 10 16 24 17 37 36 27 20 14 16 18 6 5 6 5 8 8 8 14 11 2 0 0 0 0 0 0 0 0 1 2 1 0 0 0 1 4 6 5 7 3 5 4 0 41 56 160 138 104 140 192 272 296 307 322
0 0 0 0 0 0 0 0 1 2 3 35 12 65 40 1 7 3 1 4 8 17 31 38 44 45 46 48 49 46 36 21 10 4 14 23 22 23 21 14 10 4 4 4 7 6 4 3 4 4 17 8 0 7 0 0 0 0 0 0 0 0 0 0 0 0 0 2 1 0 0 0 13 11 5 0 6 4 0 6 37 164 203 200 194 195 217
0 0 0 0 0 0 2 11 11 51 7 46 48 40 8 4 1 3 16 4 5 12 23 33 32 30 32 38 49 40 44 34 19 19 13 7 4 5 6 6 0 0 0 0 0 2 4 1 0 0 1 2 0 4 10 2 2 2 2 2 1 1 1 1 0 0 0 1 1 2 2 15 10 14 4 1 0 1 2 0 0 0 12 27 39 39 28
0 0 0 0 0 0 0 0 0 1 6 55 10 13 9 2 0 2 16 1 6 14 11 20 27 29 24 23 27 29 29 34 31 18 12 8 2 4 7 4 0 0 0 1 0 0 0 0 0 0 0 0 0 0 0 0 0 0 0 0 0 0 1 2 0 0 0 2 0 2 1 1 0 4 9 2 1 2 2 1 0 1 1 1 1 5 16
0 0 0 1 0 0 0 0 0 8 18 39 52 78 44 6 0 28 26 16 0 3 1 5 11 16 21 22 24 29 29 27 46 48 26 11 7 6 0 0 4 2 1 0 0 0 0 0 0 0 0 0 0 0 0 0 0 0 0 0 0 0 1 6 4 0 0 0 0 4 20 0 0 0 0 2 4 4 3 2 3 2 1 0 1 0 0
0 0 0 0 0 0 0 2 12 12 8 10 16 43 30 11 2 11 48 30 4 0 0 0 0 0 5 24 44 39 53 61 51 35 47 27 0 0 0 0 0 0 3 7 2 0 0 0 0 0 0 0 0 0 0 0 0 0 0 0 0 0 0 0 0 0 0 0 9 0 4 2 24 0 10 0 0 2 3 2 1 1 1 1 0 0 0
Wind_Speed
nan nan nan nan nan nan nan nan nan nan nan nan nan nan nan nan nan nan nan nan nan nan 54 56 49 44 39 35 46 58 56 52 51 51 51 48 45 48 50 51 54 56 56 52 51 52 49 48 49 46 39 34 30 25 22 20 19 17 15 12 9 7 7 6 7 10 14 16 17 17 18 19 18 17 16 16 15 14 12 10 9 7 6 6 6 6 5
nan nan nan nan nan nan nan nan nan nan nan nan nan nan nan nan nan nan nan nan nan nan 58 nan nan nan 42 nan 37 60 61 55 57 57 55 54 51 50 50 50 51 52 53 53 52 52 53 52 49 45 45 47 44 36 32 28 26 25 23 17 14 12 9 10 14 16 17 20 20 18 18 16 16 16 17 18 17 15 13 11 11 10 9 7 6 6 6
nan nan nan nan nan nan nan nan nan nan nan nan nan nan nan nan nan nan nan nan nan nan nan nan nan nan nan nan nan 55 58 57 59 59 59 59 55 53 51 50 51 50 54 57 56 55 56 55 52 49 45 42 46 46 37 30 27 26 23 20 17 17 23 29 31 34 34 28 22 19 17 17 17 16 16 18 18 17 15 14 12 12 10 8 7 7 7
nan nan nan nan nan nan nan nan nan nan nan nan nan nan nan nan nan nan nan nan nan nan 67 nan nan nan nan nan nan nan 55 59 57 59 59 58 56 55 53 50 49 51 54 60 60 57 57 57 55 52 49 44 43 44 49 44 34 31 26 23 21 21 18 16 18 20 18 18 24 21 18 17 16 17 18 18 18 18 17 15 15 14 11 9 9 9 9
nan nan nan nan nan nan nan nan nan nan nan nan nan nan nan nan nan nan nan nan nan nan nan nan nan nan nan nan nan nan nan 56 59 59 60 59 56 55 52 50 50 53 55 56 58 59 58 57 55 53 51 48 43 42 43 47 51 38 30 25 22 21 16 11 7 9 13 16 14 12 15 16 17 18 17 16 15 16 16 17 18 15 13 12 11 10 9
nan nan nan nan nan nan nan nan nan nan nan nan nan nan nan nan nan nan nan nan nan nan nan nan nan nan nan nan nan nan nan nan nan 60 60 62 60 56 52 50 nan nan 53 52 54 55 53 52 51 50 48 44 42 39 39 39 37 45 41 29 24 21 17 11 8 10 9 8 15 17 16 16 17 17 15 13 13 16 18 20 18 16 15 12 12 11 10
nan nan nan nan nan nan nan nan nan nan nan nan nan nan nan nan nan nan nan nan nan nan nan nan nan nan nan nan nan nan nan nan nan nan nan nan 62 57 54 54 55 nan nan 57 53 52 50 49 47 46 46 46 41 35 33 33 30 29 36 42 32 24 19 16 17 21 21 17 12 15 17 16 16 15 14 13 13 15 17 17 17 16 15 14 14 13 12
nan nan nan nan nan nan nan nan nan nan nan nan nan nan nan nan nan nan nan nan nan nan nan nan nan nan nan nan nan nan nan nan nan nan nan nan 60 59 nan nan nan nan 56 57 56 nan nan 47 47 47 48 47 46 43 34 32 33 27 20 21 27 27 25 23 21 22 21 18 14 13 13 14 13 12 13 14 13 15 17 17 17 18 17 16 15 14 14
nan nan nan nan nan nan nan nan nan nan nan nan nan nan nan nan nan nan nan nan nan nan nan nan nan nan nan nan nan nan nan nan nan nan nan 57 nan 60 nan nan nan nan nan nan nan nan nan 51 51 51 50 50 49 44 42 39 34 27 22 21 22 23 23 23 21 21 18 14 13 13 13 11 10 10 13 14 16 18 16 16 16 15 15 15 16 15 14
nan nan nan nan nan nan nan nan nan nan nan nan nan nan nan nan nan nan nan nan nan nan nan nan nan nan nan nan nan nan nan nan nan nan nan nan nan nan nan nan nan nan nan nan nan nan nan nan 52 nan 51 50 48 46 45 43 41 33 26 24 25 24 24 24 24 24 20 15 13 13 12 10 10 11 14 16 16 17 15 15 15 15 16 16 16 16 14
nan nan nan nan nan nan nan nan nan nan nan nan nan nan nan nan nan nan nan nan nan nan nan nan nan nan nan nan nan nan nan nan nan nan nan nan nan nan nan nan nan nan nan nan nan nan nan nan nan nan nan 48 43 44 46 45 42 40 34 30 30 26 26 27 28 25 21 15 13 13 11 10 12 12 13 15 18 19 17 17 16 17 18 17 16 16 14
nan nan nan nan nan nan nan nan nan nan nan nan nan nan nan nan nan nan nan nan nan nan nan nan nan nan nan nan nan nan nan nan nan nan nan nan nan nan nan nan nan nan nan nan nan nan nan nan nan nan nan nan 40 39 43 42 41 40 39 38 33 28 28 30 30 27 22 15 13 12 11 13 14 13 16 18 18 18 18 18 18 18 17 16 14 15 15
nan nan nan nan nan nan nan nan nan nan nan nan nan nan nan nan nan nan nan nan nan nan nan nan nan nan nan nan nan nan nan nan nan nan nan nan nan nan nan nan nan nan nan nan nan nan nan nan nan nan nan nan nan nan 40 38 38 40 42 41 38 32 30 31 33 31 24 15 12 12 14 16 16 16 17 17 17 18 18 19 19 17 15 16 15 14 15
nan nan nan nan nan nan nan nan nan nan nan nan nan nan nan nan nan nan nan nan nan nan nan nan nan nan nan nan nan nan nan nan nan nan nan nan nan nan nan nan nan nan nan nan nan nan nan nan nan nan nan nan nan nan 41 36 37 41 44 42 38 36 33 30 31 32 25 18 16 17 17 19 19 17 17 16 18 18 20 20 17 15 16 16 15 14 15
nan nan nan nan nan nan nan nan nan nan nan nan nan nan nan nan nan nan nan nan nan nan nan nan nan nan nan nan nan nan nan nan nan nan nan nan nan nan nan nan nan nan nan nan nan nan nan nan nan nan nan nan nan nan nan 40 41 41 40 39 37 36 33 29 26 25 23 18 19 22 21 20 19 17 18 18 18 19 20 19 17 16 15 15 15 14 14
nan nan nan nan nan nan nan nan nan nan nan nan nan nan nan nan nan nan nan nan nan nan nan nan nan nan nan nan nan nan nan nan nan nan nan nan nan nan nan nan nan nan nan nan nan nan nan nan nan nan nan nan nan nan nan nan 42 41 40 38 37 36 33 27 23 21 20 19 19 22 21 22 21 20 20 20 20 21 20 19 19 16 15 15 15 14 13
nan nan nan nan nan nan nan nan nan nan nan nan nan nan nan nan nan nan nan nan nan nan nan nan nan nan nan nan nan nan nan nan nan nan nan nan nan nan nan nan nan nan nan nan nan nan nan nan nan nan nan nan nan nan nan nan 43 42 42 40 37 34 31 29 27 25 24 23 22 22 23 24 23 23 22 22 23 22 22 21 20 17 15 15 13 12 13
nan nan nan nan nan nan nan nan nan nan nan nan nan nan nan nan nan nan nan nan nan nan nan nan nan nan nan nan nan nan nan nan nan nan nan nan nan nan nan nan nan nan nan nan nan nan nan nan nan nan nan nan nan nan nan nan 42 42 43 42 39 37 36 34 33 32 29 26 25 24 24 25 23 24 24 25 24 25 25 23 21 18 17 16 14 13 12
nan nan nan nan nan nan nan nan nan nan nan nan nan nan nan nan nan nan nan nan nan nan nan nan nan nan nan nan nan nan nan nan nan nan nan nan nan nan nan nan nan nan nan nan nan nan nan nan nan nan nan nan nan nan nan nan 45 42 41 41 41 41 41 41 39 36 32 30 28 27 26 26 25 26 27 28 27 27 27 24 21 19 18 17 16 14 11
nan nan nan nan nan nan nan nan nan nan nan nan nan nan nan nan nan nan nan nan nan nan nan nan nan nan nan nan nan nan nan nan nan nan nan nan nan nan nan nan nan nan nan nan nan nan nan nan nan nan nan nan nan nan nan 48 48 47 43 42 43 44 44 44 42 39 34 26 25 29 28 27 27 27 28 28 29 28 26 23 22 21 20 19 16 14 12
nan nan nan nan nan nan nan nan nan nan nan nan nan nan nan nan nan nan nan nan nan nan nan nan nan nan nan nan nan nan nan nan nan nan nan nan nan nan nan nan nan nan nan nan nan nan nan nan nan nan nan nan nan nan 51 51 52 52 51 48 45 45 46 46 44 40 35 32 31 31 31 29 27 26 26 28 30 30 28 27 24 21 19 17 16 16 16
nan nan nan nan nan nan nan nan nan nan nan nan nan nan nan nan nan nan nan nan nan nan nan nan nan nan nan nan nan nan nan nan nan nan nan nan nan nan nan nan nan nan nan nan nan nan nan nan nan nan nan nan nan nan 53 53 53 53 52 51 49 47 47 47 47 43 39 35 34 33 32 32 31 43 58 58 50 38 30 24 20 17 18 17 18 21 19
nan nan nan nan nan nan nan nan nan nan nan nan nan nan nan nan nan nan nan nan nan nan nan nan nan nan nan nan nan nan nan nan nan nan nan nan nan nan nan nan nan nan nan nan nan nan nan nan nan nan nan nan 59 57 56 54 54 54 54 52 50 50 49 49 48 46 42 39 39 37 37 42 50 53 46 40 39 42 41 38 28 19 18 17 20 21 22
nan nan nan nan nan nan nan nan nan nan nan nan nan nan nan nan nan nan nan nan nan nan nan nan nan nan nan nan nan nan nan nan nan nan nan nan nan nan nan nan nan nan nan nan nan nan nan nan nan nan nan nan nan 59 57 55 53 52 53 52 51 51 51 49 49 49 44 42 43 51 55 54 50 44 36 30 27 31 38 38 41 35 27 22 20 20 19
nan nan nan nan nan nan nan nan nan nan nan nan nan nan nan nan nan nan nan nan nan nan nan nan nan nan nan nan nan nan nan nan nan nan nan nan nan nan nan nan nan nan nan nan nan nan nan nan nan nan nan nan nan 60 59 56 53 50 50 50 49 49 50 49 50 54 55 52 51 51 51 50 47 42 37 32 30 35 47 48 45 41 38 36 31 27 21
nan nan nan nan nan nan nan nan nan nan nan nan nan nan nan nan nan nan nan nan nan nan nan nan nan nan nan nan nan nan nan nan nan nan nan nan nan nan nan nan nan nan nan nan nan nan nan nan nan nan nan nan 63 62 59 55 52 49 47 46 45 46 47 48 49 53 56 61 60 57 54 49 47 44 38 33 31 38 45 45 44 41 39 34 32 29 26
nan nan nan nan nan nan nan nan nan nan nan nan nan nan nan nan nan nan nan nan nan nan nan nan nan nan nan nan nan nan nan nan nan nan nan nan nan nan nan nan nan nan nan nan nan nan nan nan nan nan nan nan 64 62 58 54 52 49 47 45 44 44 45 47 50 52 57 58 60 62 65 63 59 53 46 40 39 41 41 41 40 37 32 31 30 29 28
nan nan nan nan nan nan nan nan nan nan nan nan nan nan nan nan nan nan nan nan nan nan nan nan nan nan nan nan nan nan nan nan nan nan nan nan nan nan nan nan nan nan nan nan nan nan nan nan nan nan nan nan 66 63 59 55 53 50 48 47 48 47 47 48 50 51 53 56 57 57 58 56 56 57 57 55 51 46 42 42 43 41 38 35 37 42 47
nan nan nan nan nan nan nan nan nan nan nan nan nan nan nan nan nan nan nan nan nan nan nan nan nan nan nan nan nan nan nan nan nan nan nan nan nan nan nan nan nan nan nan nan nan nan nan nan nan nan nan nan 67 63 60 58 55 52 53 53 51 50 49 49 49 49 53 55 56 53 51 49 50 50 49 48 47 43 40 40 41 42 42 46 46 42 46
nan nan nan nan nan nan nan nan nan nan nan nan nan nan nan nan nan nan nan nan nan nan nan nan nan nan nan nan nan nan nan nan nan nan nan nan nan nan nan nan nan nan nan nan nan nan nan nan nan nan 67 68 68 65 61 58 55 55 56 55 54 53 52 50 48 49 52 51 51 50 49 46 43 43 44 47 48 46 41 36 38 42 45 50 47 44 44
nan nan nan nan nan nan nan nan nan nan nan nan nan nan nan nan nan nan nan nan nan nan nan nan nan nan nan nan nan nan nan nan nan nan nan nan nan nan nan nan nan nan nan nan nan nan nan nan nan nan 73 69 70 68 63 59 57 57 59 59 58 54 54 55 50 49 50 50 47 46 45 41 39 40 41 44 46 44 40 38 40 44 52 54 49 47 48
nan nan nan nan nan nan nan nan nan nan nan nan nan nan nan nan nan nan nan nan nan nan nan nan nan nan nan nan nan nan nan nan nan nan nan nan nan nan nan nan nan nan nan nan nan nan nan nan nan nan nan 73 71 69 66 62 60 57 57 61 61 57 55 57 54 51 50 48 46 44 43 41 39 39 39 39 38 36 36 39 42 46 50 51 49 48 50
nan nan nan nan nan nan nan nan nan nan nan nan nan nan nan nan nan nan nan nan nan nan nan nan nan nan nan nan nan nan nan nan nan nan nan nan nan nan nan nan nan nan nan nan nan nan nan nan nan nan 83 78 74 71 69 66 64 59 57 58 60 59 59 58 55 53 52 49 46 42 41 40 41 40 35 34 35 35 36 39 42 43 47 49 47 47 48
nan nan nan nan nan nan nan nan nan nan nan nan nan nan nan nan nan nan nan nan nan nan nan nan nan nan nan nan nan nan nan nan nan nan nan nan nan nan nan nan nan nan nan nan nan nan nan nan nan nan nan 82 79 75 73 nan nan 62 59 58 59 60 60 60 60 57 56 54 50 43 40 41 41 39 36 35 37 37 37 38 39 40 43 46 47 47 48
nan nan nan nan nan nan nan nan nan nan nan nan nan nan nan nan nan nan nan nan nan nan nan nan nan nan nan nan nan nan nan nan nan nan 47 nan nan nan nan nan nan nan nan nan nan nan nan nan nan nan nan nan 81 81 nan nan nan nan 64 62 61 61 61 62 63 60 58 56 54 52 50 46 43 42 41 40 38 37 38 39 39 39 42 46 50 54 57
nan nan nan nan nan nan nan nan nan nan nan nan nan nan nan nan nan nan nan nan nan nan nan nan nan nan nan nan nan nan nan nan nan nan nan nan nan nan nan nan nan nan nan nan nan nan nan nan nan nan nan nan nan nan nan nan 77 nan 68 66 63 62 62 64 63 61 60 60 61 59 57 56 55 52 47 41 39 40 42 43 41 42 45 51 55 57 58
nan nan nan nan nan nan nan nan nan nan nan nan nan nan nan nan nan nan nan nan nan nan nan nan nan nan nan nan nan nan nan 35 nan nan nan nan nan nan nan nan nan nan nan nan nan nan nan nan nan nan nan nan nan nan nan nan nan nan nan 70 67 65 64 64 65 64 63 63 63 62 61 59 57 54 53 53 50 50 51 52 51 50 51 54 56 58 60
nan nan nan nan nan nan nan nan nan nan nan nan nan nan nan nan nan nan nan nan nan nan nan nan nan nan nan nan nan nan nan nan nan nan nan nan nan nan nan nan nan nan nan nan nan nan nan nan nan nan nan nan nan nan nan nan nan nan nan 74 70 67 64 63 65 67 66 65 65 64 64 63 61 57 55 55 52 51 51 54 54 53 56 59 61 63 65
nan nan nan nan nan nan nan nan nan nan nan nan nan nan nan nan nan nan nan nan nan nan nan nan nan nan nan nan nan nan nan nan nan nan 45 47 nan nan nan nan nan nan nan nan nan nan nan nan nan nan nan nan nan nan nan nan nan nan nan nan nan nan 66 63 64 67 66 65 65 65 65 65 65 62 58 57 56 56 56 59 59 60 63 65 67 68 70
nan nan nan nan nan nan nan nan nan nan nan nan nan nan nan nan nan nan nan nan nan nan nan nan nan nan nan nan nan nan nan nan nan nan nan nan nan nan nan nan nan nan nan nan nan nan nan nan nan nan nan nan nan nan nan nan nan nan nan nan nan nan nan 63 63 66 66 64 66 68 65 65 66 64 59 56 55 56 56 58 60 62 65 67 69 70 72
nan nan nan nan nan nan nan nan nan nan nan nan nan nan nan nan nan nan nan nan nan nan nan nan nan nan nan nan nan nan nan nan nan nan nan nan nan nan nan nan nan nan nan nan nan nan nan nan nan nan nan nan nan nan nan nan nan nan nan nan nan nan nan nan 63 62 61 61 63 64 62 61 62 63 59 55 54 53 54 54 54 53 56 60 63 65 67
nan nan nan nan nan nan nan nan nan nan nan nan nan nan nan nan nan nan nan nan nan nan nan nan nan nan nan nan nan nan nan nan nan nan nan nan nan nan nan nan nan nan nan nan nan nan nan nan nan nan nan nan nan nan nan nan nan nan nan nan nan nan nan nan nan 63 62 nan nan 61 60 58 56 56 57 59 56 56 56 56 54 52 50 51 52 53 56
nan nan nan nan nan nan nan nan nan nan nan nan nan nan nan nan nan nan nan nan nan nan nan nan nan nan nan nan nan nan nan nan nan nan nan nan nan nan nan nan nan nan nan nan nan nan nan nan nan nan nan nan nan nan nan nan nan nan nan nan nan nan nan nan nan nan nan 65 nan nan 61 60 56 52 55 59 59 58 58 58 57 54 52 49 46 47 51
nan nan nan nan nan nan nan nan nan nan nan nan nan nan nan nan nan nan nan nan nan nan nan nan nan nan nan nan nan nan nan nan nan nan nan nan nan nan nan nan nan nan nan nan nan nan nan nan nan nan nan nan nan nan nan nan nan nan nan nan nan nan nan nan nan nan nan nan nan nan 64 64 61 57 56 57 57 57 58 58 56 55 53 50 47 47 49
nan nan nan nan nan nan nan nan nan nan nan nan nan nan nan nan nan nan nan nan nan nan nan nan nan nan nan nan nan nan nan nan nan nan nan nan nan nan nan nan nan nan nan nan nan nan nan nan nan nan nan nan nan nan nan nan nan nan nan nan nan nan nan nan nan nan nan nan nan nan nan nan 65 nan nan nan 55 54 55 57 57 55 54 52 50 49 48
nan nan nan nan nan nan nan nan nan nan nan nan nan nan nan nan nan nan nan nan nan nan nan nan nan nan nan nan nan nan nan nan nan nan nan nan nan nan nan nan nan nan nan nan nan nan nan nan nan nan nan nan nan nan nan nan nan nan nan nan nan nan nan nan nan nan nan nan nan nan nan nan nan nan nan nan 58 54 53 55 56 56 57 57 56 54 51
nan nan nan nan nan nan nan nan nan nan nan nan nan nan nan nan nan nan nan nan nan nan nan nan nan nan nan nan nan nan nan nan nan nan nan nan nan nan nan nan nan nan nan nan nan nan nan nan nan nan nan nan nan nan nan nan nan nan nan nan nan nan nan nan nan nan nan nan nan nan nan nan nan nan nan nan nan nan 56 55 54 54 56 59 60 60 58
nan nan nan nan nan nan nan nan nan nan nan nan nan nan nan nan nan nan nan nan nan nan nan nan nan nan nan nan nan nan nan nan nan nan nan nan nan nan nan nan nan nan nan nan nan nan nan nan nan nan nan nan nan nan nan nan nan nan nan nan nan nan nan nan nan nan nan nan nan nan nan nan nan nan nan nan nan nan nan nan nan 54 55 57 59 58 58
nan nan nan nan nan nan nan nan nan nan nan nan nan nan nan nan nan nan nan nan nan nan nan nan nan nan nan nan nan nan nan nan nan nan nan nan nan nan nan nan nan nan nan nan nan nan nan nan nan nan nan nan nan nan nan nan nan nan nan nan nan nan nan nan nan nan nan nan nan nan nan nan nan nan nan nan nan nan nan nan nan nan nan nan nan nan nan
nan nan nan nan nan nan nan nan nan nan nan nan nan nan nan nan nan nan nan nan nan nan nan nan nan nan nan nan nan nan nan nan nan nan nan nan nan nan nan nan nan nan nan nan nan nan nan nan nan nan nan nan nan nan nan nan nan nan nan nan nan nan nan nan nan nan nan nan nan nan nan nan nan nan nan nan nan nan nan nan nan nan nan nan nan nan nan
nan nan nan nan nan nan nan nan nan nan nan nan nan nan nan nan nan nan nan nan nan nan nan nan nan nan nan nan nan nan nan nan nan nan nan nan nan nan nan nan nan nan nan nan nan nan nan nan nan nan nan nan nan nan nan nan nan nan nan nan nan nan nan nan nan nan nan nan nan nan nan nan nan nan nan nan nan nan nan nan nan nan nan nan nan nan nan
nan nan nan nan nan nan nan nan nan nan nan nan nan nan nan nan nan nan nan nan nan nan nan nan nan nan nan nan nan nan nan nan nan nan nan nan nan nan nan nan nan nan nan nan nan nan nan nan nan nan nan nan nan nan nan nan nan nan nan nan nan nan nan nan nan nan nan nan nan nan nan nan nan nan nan nan nan nan nan nan nan nan nan nan nan nan nan
Wind_Direction
nan nan nan nan nan nan nan nan nan nan nan nan nan nan nan nan nan nan nan nan nan nan 196 197 204 206 215 221 212 210 209 209 207 204 206 209 213 216 219 218 216 212 210 207 205 204 201 205 208 201 196 192 188 193 203 214 225 235 235 232 231 236 243 249 240 229 218 213 210 210 213 214 213 210 208 207 208 207 204 198 202 208 223 246 261 267 271
nan nan nan nan nan nan nan nan nan nan nan nan nan nan nan nan nan nan nan nan nan nan 198 nan nan nan 204 nan 213 213 212 209 211 209 205 204 207 214 218 220 221 216 211 208 207 205 206 206 206 211 212 201 190 192 200 206 214 219 224 224 222 220 221 217 215 215 214 211 210 213 214 214 215 214 211 209 210 209 206 202 203 210 215 228 250 269 275
nan nan nan nan nan nan nan nan nan nan nan nan nan nan nan nan nan nan nan nan nan nan nan nan nan nan nan nan nan 215 215 217 214 211 207 202 202 209 216 219 221 220 214 209 206 206 206 205 207 207 208 213 210 195 192 204 213 220 226 230 229 229 226 227 224 213 198 196 202 206 209 211 215 218 217 215 211 209 208 207 207 211 215 221 233 250 266
nan nan nan nan nan nan nan nan nan nan nan nan nan nan nan nan nan nan nan nan nan nan 199 nan nan nan nan nan nan nan 215 217 214 212 211 206 202 206 211 214 216 217 215 209 203 204 204 203 204 206 205 207 215 220 201 189 199 211 220 227 235 240 249 267 279 276 259 222 193 195 204 205 211 216 219 219 215 213 212 210 211 214 215 217 224 235 245
nan nan nan nan nan nan nan nan nan nan nan nan nan nan nan nan nan nan nan nan nan nan nan nan nan nan nan nan nan nan nan 210 209 211 215 212 207 204 207 210 212 215 214 209 204 202 204 203 202 202 204 204 210 218 224 206 188 197 213 216 224 229 237 252 267 274 289 294 285 236 214 212 211 215 219 219 218 218 216 215 216 215 216 220 221 227 236
nan nan nan nan nan nan nan nan nan nan nan nan nan nan nan nan nan nan nan nan nan nan nan nan nan nan nan nan nan nan nan nan nan 209 214 215 210 203 204 208 nan nan 212 210 207 203 205 205 205 203 207 207 205 210 224 225 206 186 189 201 208 215 223 224 204 187 194 259 287 282 256 234 224 220 219 216 218 221 220 220 218 215 218 222 224 228 232
nan nan nan nan nan nan nan nan nan nan nan nan nan nan nan nan nan nan nan nan nan nan nan nan nan nan nan nan nan nan nan nan nan nan nan nan 208 203 202 202 205 nan nan 201 209 208 204 207 209 208 209 211 209 209 214 226 230 217 191 183 192 203 209 206 197 186 182 187 218 257 265 253 239 228 220 213 217 222 224 225 223 220 220 222 225 228 228
nan nan nan nan nan nan nan nan nan nan nan nan nan nan nan nan nan nan nan nan nan nan nan nan nan nan nan nan nan nan nan nan nan nan nan nan 210 207 nan nan nan nan 204 202 200 nan nan 205 213 212 210 208 205 201 211 225 226 230 226 206 192 197 200 202 196 190 187 182 190 216 243 254 247 233 224 219 217 222 223 222 221 219 217 219 225 229 230
nan nan nan nan nan nan nan nan nan nan nan nan nan nan nan nan nan nan nan nan nan nan nan nan nan nan nan nan nan nan nan nan nan nan nan 209 nan 208 nan nan nan nan nan nan nan nan nan 206 207 212 208 207 205 199 198 206 221 226 224 218 216 209 202 202 196 194 197 194 191 202 216 228 237 231 224 219 216 219 220 220 221 221 217 218 221 228 234
nan nan nan nan nan nan nan nan nan nan nan nan nan nan nan nan nan nan nan nan nan nan nan nan nan nan nan nan nan nan nan nan nan nan nan nan nan nan nan nan nan nan nan nan nan nan nan nan 208 nan 210 207 204 200 198 201 205 216 219 219 221 217 210 208 203 200 200 197 195 206 212 206 208 215 219 217 217 220 219 220 218 216 215 212 213 219 229
nan nan nan nan nan nan nan nan nan nan nan nan nan nan nan nan nan nan nan nan nan nan nan nan nan nan nan nan nan nan nan nan nan nan nan nan nan nan nan nan nan nan nan nan nan nan nan nan nan nan nan 209 205 199 199 200 202 204 215 223 223 219 213 214 209 204 203 197 193 204 210 204 206 208 213 218 219 219 216 218 217 219 218 214 210 212 218
nan nan nan nan nan nan nan nan nan nan nan nan nan nan nan nan nan nan nan nan nan nan nan nan nan nan nan nan nan nan nan nan nan nan nan nan nan nan nan nan nan nan nan nan nan nan nan nan nan nan nan nan 209 202 199 201 202 205 211 220 222 218 218 220 213 204 198 193 193 203 212 213 210 205 210 216 222 223 219 218 220 223 222 219 213 209 212
nan nan nan nan nan nan nan nan nan nan nan nan nan nan nan nan nan nan nan nan nan nan nan nan nan nan nan nan nan nan nan nan nan nan nan nan nan nan nan nan nan nan nan nan nan nan nan nan nan nan nan nan nan nan 201 203 204 204 206 210 210 214 219 219 214 204 200 203 207 208 214 219 216 212 212 215 222 225 223 220 221 223 226 225 220 214 215
nan nan nan nan nan nan nan nan nan nan nan nan nan nan nan nan nan nan nan nan nan nan nan nan nan nan nan nan nan nan nan nan nan nan nan nan nan nan nan nan nan nan nan nan nan nan nan nan nan nan nan nan nan nan 200 201 203 201 200 201 200 198 201 207 206 207 212 224 229 221 221 225 223 218 215 216 221 226 225 224 224 225 227 229 228 225 223
nan nan nan nan nan nan nan nan nan nan nan nan nan nan nan nan nan nan nan nan nan nan nan nan nan nan nan nan nan nan nan nan nan nan nan nan nan nan nan nan nan nan nan nan nan nan nan nan nan nan nan nan nan nan nan 194 198 198 199 200 197 195 196 196 198 203 214 228 231 226 226 231 232 227 222 220 221 225 227 226 225 225 227 231 233 233 233
nan nan nan nan nan nan nan nan nan nan nan nan nan nan nan nan nan nan nan nan nan nan nan nan nan nan nan nan nan nan nan nan nan nan nan nan nan nan nan nan nan nan nan nan nan nan nan nan nan nan nan nan nan nan nan nan 197 197 197 197 197 198 202 204 201 203 212 222 228 229 230 232 233 233 230 227 226 226 229 229 228 225 224 230 234 236 240
nan nan nan nan nan nan nan nan nan nan nan nan nan nan nan nan nan nan nan nan nan nan nan nan nan nan nan nan nan nan nan nan nan nan nan nan nan nan nan nan nan nan nan nan nan nan nan nan nan nan nan nan nan nan nan nan 200 197 195 195 196 196 199 201 202 205 211 218 224 227 229 234 235 235 235 236 232 231 231 230 228 226 227 233 236 237 239
nan nan nan nan nan nan nan nan nan nan nan nan nan nan nan nan nan nan nan nan nan nan nan nan nan nan nan nan nan nan nan nan nan nan nan nan nan nan nan nan nan nan nan nan nan nan nan nan nan nan nan nan nan nan nan nan 204 200 196 196 197 196 195 196 196 200 205 212 220 227 231 233 237 238 241 241 238 237 236 233 230 230 232 236 236 240 242
nan nan nan nan nan nan nan nan nan nan nan nan nan nan nan nan nan nan nan nan nan nan nan nan nan nan nan nan nan nan nan nan nan nan nan nan nan nan nan nan nan nan nan nan nan nan nan nan nan nan nan nan nan nan nan nan 205 203 201 199 198 197 194 192 193 198 202 208 217 224 231 234 237 238 239 241 242 243 243 240 239 239 241 244 241 243 245
nan nan nan nan nan nan nan nan nan nan nan nan nan nan nan nan nan nan nan nan nan nan nan nan nan nan nan nan nan nan nan nan nan nan nan nan nan nan nan nan nan nan nan nan nan nan nan nan nan nan nan nan nan nan nan 210 206 204 202 202 200 197 193 191 193 197 203 207 215 224 230 236 239 240 240 242 243 244 244 244 245 245 247 250 251 252 247
nan nan nan nan nan nan nan nan nan nan nan nan nan nan nan nan nan nan nan nan nan nan nan nan nan nan nan nan nan nan nan nan nan nan nan nan nan nan nan nan nan nan nan nan nan nan nan nan nan nan nan nan nan nan 213 213 210 206 202 199 200 198 196 195 195 200 206 212 220 225 232 237 238 243 244 243 240 235 234 238 245 252 256 260 263 259 253
nan nan nan nan nan nan nan nan nan nan nan nan nan nan nan nan nan nan nan nan nan nan nan nan nan nan nan nan nan nan nan nan nan nan nan nan nan nan nan nan nan nan nan nan nan nan nan nan nan nan nan nan nan nan 215 215 212 209 205 202 202 202 201 200 200 202 208 213 221 227 232 236 238 231 221 224 223 225 230 242 254 260 262 259 261 256 251
nan nan nan nan nan nan nan nan nan nan nan nan nan nan nan nan nan nan nan nan nan nan nan nan nan nan nan nan nan nan nan nan nan nan nan nan nan nan nan nan nan nan nan nan nan nan nan nan nan nan nan nan 220 221 217 213 212 212 209 208 206 205 204 204 203 204 209 214 219 226 229 231 232 230 225 221 226 236 233 225 229 246 258 255 256 262 256
nan nan nan nan nan nan nan nan nan nan nan nan nan nan nan nan nan nan nan nan nan nan nan nan nan nan nan nan nan nan nan nan nan nan nan nan nan nan nan nan nan nan nan nan nan nan nan nan nan nan nan nan nan 220 216 212 211 210 210 209 207 207 207 208 207 208 213 217 222 229 232 236 240 240 238 240 233 238 245 246 237 232 232 243 255 266 269
nan nan nan nan nan nan nan nan nan nan nan nan nan nan nan nan nan nan nan nan nan nan nan nan nan nan nan nan nan nan nan nan nan nan nan nan nan nan nan nan nan nan nan nan nan nan nan nan nan nan nan nan nan 217 212 210 209 208 209 209 206 207 209 210 212 213 213 220 230 235 238 239 241 243 241 237 239 239 232 232 241 248 253 250 241 229 229
nan nan nan nan nan nan nan nan nan nan nan nan nan nan nan nan nan nan nan nan nan nan nan nan nan nan nan nan nan nan nan nan nan nan nan nan nan nan nan nan nan nan nan nan nan nan nan nan nan nan nan nan 216 212 209 207 207 207 207 206 208 211 213 213 215 221 224 220 220 223 227 235 243 245 243 241 238 239 241 240 235 231 236 253 263 259 247
nan nan nan nan nan nan nan nan nan nan nan nan nan nan nan nan nan nan nan nan nan nan nan nan nan nan nan nan nan nan nan nan nan nan nan nan nan nan nan nan nan nan nan nan nan nan nan nan nan nan nan nan 213 209 207 205 205 205 206 208 213 211 204 212 222 223 227 230 229 230 229 224 223 226 228 232 235 237 241 243 244 245 247 247 247 258 261
nan nan nan nan nan nan nan nan nan nan nan nan nan nan nan nan nan nan nan nan nan nan nan nan nan nan nan nan nan nan nan nan nan nan nan nan nan nan nan nan nan nan nan nan nan nan nan nan nan nan nan nan 209 206 205 204 204 206 209 215 217 217 217 217 224 228 231 233 235 236 237 236 239 240 234 225 224 225 227 233 240 243 241 247 249 239 236
nan nan nan nan nan nan nan nan nan nan nan nan nan nan nan nan nan nan nan nan nan nan nan nan nan nan nan nan nan nan nan nan nan nan nan nan nan nan nan nan nan nan nan nan nan nan nan nan nan nan nan nan 206 205 204 205 207 211 214 214 217 219 218 220 222 229 236 238 237 237 239 241 243 246 249 251 249 242 231 231 238 240 242 244 243 241 238
nan nan nan nan nan nan nan nan nan nan nan nan nan nan nan nan nan nan nan nan nan nan nan nan nan nan nan nan nan nan nan nan nan nan nan nan nan nan nan nan nan nan nan nan nan nan nan nan nan nan 211 206 204 204 205 209 213 218 219 218 218 219 220 220 223 229 238 242 243 242 243 245 243 244 247 248 248 250 249 239 236 240 243 242 241 242 239
nan nan nan nan nan nan nan nan nan nan nan nan nan nan nan nan nan nan nan nan nan nan nan nan nan nan nan nan nan nan nan nan nan nan nan nan nan nan nan nan nan nan nan nan nan nan nan nan nan nan 217 211 206 206 208 212 216 220 219 218 219 218 218 217 222 230 239 242 245 246 248 249 248 251 257 255 250 251 252 246 238 239 240 241 241 240 240
nan nan nan nan nan nan nan nan nan nan nan nan nan nan nan nan nan nan nan nan nan nan nan nan nan nan nan nan nan nan nan nan nan nan nan nan nan nan nan nan nan nan nan nan nan nan nan nan nan nan nan 215 211 210 212 215 218 218 217 215 216 220 222 221 225 228 235 241 244 244 246 249 251 255 259 257 254 255 254 248 242 240 242 244 244 242 242
nan nan nan nan nan nan nan nan nan nan nan nan nan nan nan nan nan nan nan nan nan nan nan nan nan nan nan nan nan nan nan nan nan nan nan nan nan nan nan nan nan nan nan nan nan nan nan nan nan nan 219 218 215 214 215 218 221 220 217 215 216 219 223 226 225 228 233 238 243 246 247 248 250 254 255 253 251 251 249 248 246 244 244 246 246 245 245
nan nan nan nan nan nan nan nan nan nan nan nan nan nan nan nan nan nan nan nan nan nan nan nan nan nan nan nan nan nan nan nan nan nan nan nan nan nan nan nan nan nan nan nan nan nan nan nan nan nan nan 219 217 217 219 nan nan 222 220 217 217 220 224 227 228 229 232 235 238 243 245 245 248 251 251 250 250 250 249 249 249 248 246 246 246 246 244
nan nan nan nan nan nan nan nan nan nan nan nan nan nan nan nan nan nan nan nan nan nan nan nan nan nan nan nan nan nan nan nan nan nan 221 nan nan nan nan nan nan nan nan nan nan nan nan nan nan nan nan nan 221 221 nan nan nan nan 223 221 219 221 223 228 230 231 232 234 238 240 244 246 245 244 249 251 251 251 250 249 248 247 245 244 242 240 239
nan nan nan nan nan nan nan nan nan nan nan nan nan nan nan nan nan nan nan nan nan nan nan nan nan nan nan nan nan nan nan nan nan nan nan nan nan nan nan nan nan nan nan nan nan nan nan nan nan nan nan nan nan nan nan nan 230 nan 226 225 225 224 225 227 230 233 235 237 238 239 241 242 244 243 245 248 252 250 249 249 246 241 238 237 238 240 241
nan nan nan nan nan nan nan nan nan nan nan nan nan nan nan nan nan nan nan nan nan nan nan nan nan nan nan nan nan nan nan 229 nan nan nan nan nan nan nan nan nan nan nan nan nan nan nan nan nan nan nan nan nan nan nan nan nan nan nan 231 230 230 229 229 231 233 236 239 240 240 241 242 244 244 244 243 243 244 246 248 245 240 236 237 238 241 241
nan nan nan nan nan nan nan nan nan nan nan nan nan nan nan nan nan nan nan nan nan nan nan nan nan nan nan nan nan nan nan nan nan nan nan nan nan nan nan nan nan nan nan nan nan nan nan nan nan nan nan nan nan nan nan nan nan nan nan 235 235 234 234 234 234 234 235 238 241 242 242 242 242 243 243 243 243 246 250 251 249 245 242 240 240 240 241
nan nan nan nan nan nan nan nan nan nan nan nan nan nan nan nan nan nan nan nan nan nan nan nan nan nan nan nan nan nan nan nan nan nan 220 217 nan nan nan nan nan nan nan nan nan nan nan nan nan nan nan nan nan nan nan nan nan nan nan nan nan nan 237 237 238 236 234 236 239 241 243 243 243 242 242 243 244 247 248 249 248 243 239 239 240 240 239
nan nan nan nan nan nan nan nan nan nan nan nan nan nan nan nan nan nan nan nan nan nan nan nan nan nan nan nan nan nan nan nan nan nan nan nan nan nan nan nan nan nan nan nan nan nan nan nan nan nan nan nan nan nan nan nan nan nan nan nan nan nan nan 238 238 236 236 235 237 239 241 243 244 242 242 243 246 250 253 253 251 248 244 241 240 238 238
nan nan nan nan nan nan nan nan nan nan nan nan nan nan nan nan nan nan nan nan nan nan nan nan nan nan nan nan nan nan nan nan nan nan nan nan nan nan nan nan nan nan nan nan nan nan nan nan nan nan nan nan nan nan nan nan nan nan nan nan nan nan nan nan 236 236 236 236 235 237 240 242 242 241 240 241 244 245 246 249 252 251 249 249 248 243 237
nan nan nan nan nan nan nan nan nan nan nan nan nan nan nan nan nan nan nan nan nan nan nan nan nan nan nan nan nan nan nan nan nan nan nan nan nan nan nan nan nan nan nan nan nan nan nan nan nan nan nan nan nan nan nan nan nan nan nan nan nan nan nan nan nan 237 238 nan nan 237 238 239 241 241 239 239 240 244 246 247 249 250 252 253 253 248 240
nan nan nan nan nan nan nan nan nan nan nan nan nan nan nan nan nan nan nan nan nan nan nan nan nan nan nan nan nan nan nan nan nan nan nan nan nan nan nan nan nan nan nan nan nan nan nan nan nan nan nan nan nan nan nan nan nan nan nan nan nan nan nan nan nan nan nan 240 nan nan 239 241 242 241 240 242 245 247 249 250 252 252 254 257 259 255 248
nan nan nan nan nan nan nan nan nan nan nan nan nan nan nan nan nan nan nan nan nan nan nan nan nan nan nan nan nan nan nan nan nan nan nan nan nan nan nan nan nan nan nan nan nan nan nan nan nan nan nan nan nan nan nan nan nan nan nan nan nan nan nan nan nan nan nan nan nan nan 240 240 241 242 242 244 248 250 249 250 251 252 254 257 260 261 259
nan nan nan nan nan nan nan nan nan nan nan nan nan nan nan nan nan nan nan nan nan nan nan nan nan nan nan nan nan nan nan nan nan nan nan nan nan nan nan nan nan nan nan nan nan nan nan nan nan nan nan nan nan nan nan nan nan nan nan nan nan nan nan nan nan nan nan nan nan nan nan nan 239 nan nan nan 247 250 249 249 250 251 252 254 257 260 260
nan nan nan nan nan nan nan nan nan nan nan nan nan nan nan nan nan nan nan nan nan nan nan nan nan nan nan nan nan nan nan nan nan nan nan nan nan nan nan nan nan nan nan nan nan nan nan nan nan nan nan nan nan nan nan nan nan nan nan nan nan nan nan nan nan nan nan nan nan nan nan nan nan nan nan nan 249 250 250 249 249 249 250 252 253 255 257
nan nan nan nan nan nan nan nan nan nan nan nan nan nan nan nan nan nan nan nan nan nan nan nan nan nan nan nan nan nan nan nan nan nan nan nan nan nan nan nan nan nan nan nan nan nan nan nan nan nan nan nan nan nan nan nan nan nan nan nan nan nan nan nan nan nan nan nan nan nan nan nan nan nan nan nan nan nan 251 251 249 249 250 252 252 253 254
nan nan nan nan nan nan nan nan nan nan nan nan nan nan nan nan nan nan nan nan nan nan nan nan nan nan nan nan nan nan nan nan nan nan nan nan nan nan nan nan nan nan nan nan nan nan nan nan nan nan nan nan nan nan nan nan nan nan nan nan nan nan nan nan nan nan nan nan nan nan nan nan nan nan nan nan nan nan nan nan nan 251 250 251 252 254 255
nan nan nan nan nan nan nan nan nan nan nan nan nan nan nan nan nan nan nan nan nan nan nan nan nan nan nan nan nan nan nan nan nan nan nan nan nan nan nan nan nan nan nan nan nan nan nan nan nan nan nan nan nan nan nan nan nan nan nan nan nan nan nan nan nan nan nan nan nan nan nan nan nan nan nan nan nan nan nan nan nan nan nan nan nan nan nan
nan nan nan nan nan nan nan nan nan nan nan nan nan nan nan nan nan nan nan nan nan nan nan nan nan nan nan nan nan nan nan nan nan nan nan nan nan nan nan nan nan nan nan nan nan nan nan nan nan nan nan nan nan nan nan nan nan nan nan nan nan nan nan nan nan nan nan nan nan nan nan nan nan nan nan nan nan nan nan nan nan nan nan nan nan nan nan
nan nan nan nan nan nan nan nan nan nan nan nan nan nan nan nan nan nan nan nan nan nan nan nan nan nan nan nan nan nan nan nan nan nan nan nan nan nan nan nan nan nan nan nan nan nan nan nan nan nan nan nan nan nan nan nan nan nan nan nan nan nan nan nan nan nan nan nan nan nan nan nan nan nan nan nan nan nan nan nan nan nan nan nan nan nan nan
nan nan nan nan nan nan nan nan nan nan nan nan nan nan nan nan nan nan nan nan nan nan nan nan nan nan nan nan nan nan nan nan nan nan nan nan nan nan nan nan nan nan nan nan nan nan nan nan nan nan nan nan nan nan nan nan nan nan nan nan nan nan nan nan nan nan nan nan nan nan nan nan nan nan nan nan nan nan nan nan nan nan nan nan nan nan nan